Tracking 27420 objects as of 29-May-2023
HD Live streaming from Space Station
objects crossing your sky now

IRIDIUM 178

Track IRIDIUM 178 now!
10-day predictions
IRIDIUM 178 is classified as:


NORAD ID: 56729
Int'l Code: 2023-068V
Perigee: 614.5 km
Apogee: 635.1 km
Inclination: 86.7 °
Period: 97.1 minutes
Semi major axis: 6995 km
RCS: Unknown
Launch date: May 20, 2023
Source: United States (US)
Launch site: AIR FORCE WESTERN TEST RANGE (AFWTR)
Your satellite tracking list
Your tracking list is empty




NASA's NSSDC Master Catalog

Two Line Element Set (TLE):
1 56729U 23068V   23148.21658806  .00000521  00000-0  59622-4 0  9998
2 56729  86.6743 137.1437 0014785 187.9896 172.1095 14.83704173  1288
Source of the keplerian elements: AFSPC